datenum,ret_co,vol_cv,vol_vix_cboe,vol_diff
19900119,-0.012640,0.007839,0.012990,0.005151
19900216,0.015952,0.007404,0.011997,0.004593
19900323,0.002577,0.007468,0.011813,0.004344
19900420,0.056135,0.006315,0.013470,0.007155
19900518,0.022997,0.005615,0.009930,0.004315
19900622,0.027445,0.008819,0.011178,0.002358
19900720,-0.084348,0.008011,0.009024,0.001013
19900824,0.000064,0.011311,0.019589,0.008279
19900921,-0.018086,0.008740,0.017344,0.008604
19901019,0.014424,0.015860,0.016085,0.000225
19901123,0.046566,0.011136,0.012113,0.000977
19901221,-0.011582,0.007304,0.013083,0.005779
19910118,0.091958,0.008154,0.014659,0.006505
19910215,0.011959,0.009721,0.011299,0.001577
19910322,0.055521,0.008272,0.009521,0.001248
19910419,-0.031759,0.010061,0.009053,-0.001008
19910524,-0.005499,0.008656,0.008793,0.000137
19910621,0.019997,0.007338,0.009532,0.002194
19910719,0.013212,0.008194,0.008949,0.000755
19910823,-0.016912,0.007795,0.008320,0.000524
19910920,0.010259,0.005203,0.009861,0.004658
19911018,0.011778,0.006484,0.009163,0.002679
19911122,0.016820,0.006569,0.012240,0.005671
19911220,0.077432,0.006581,0.010190,0.003609
19920124,-0.003810,0.006016,0.009376,0.003360
19920221,-0.003970,0.006748,0.009740,0.002992
19920320,0.011459,0.005036,0.009417,0.004380
19920416,-0.006995,0.007748,0.008574,0.000826
19920522,-0.032053,0.005554,0.007927,0.002373
19920619,0.033783,0.006121,0.009417,0.003295
19920724,0.016075,0.006034,0.007719,0.001686
19920821,0.012147,0.005393,0.008666,0.003273
19920918,-0.032026,0.006303,0.007933,0.001630
19921023,0.022706,0.005667,0.009503,0.003836
19921120,0.020439,0.005357,0.007892,0.002535
19921218,-0.012336,0.005076,0.006732,0.001656
19930122,-0.009631,0.003976,0.006524,0.002548
19930219,0.039910,0.004756,0.008672,0.003916
19930319,-0.003940,0.005028,0.007638,0.002610
19930423,0.030556,0.004016,0.007713,0.003697
19930521,0.006038,0.004541,0.008377,0.003837
19930618,0.012075,0.005540,0.007067,0.001527
19930723,0.020828,0.005532,0.006536,0.001003
19930820,0.007143,0.003509,0.006709,0.003200
19930917,0.017285,0.004178,0.007731,0.003553
19931022,0.000691,0.004251,0.006628,0.002377
19931119,0.001598,0.005180,0.008678,0.003498
19931223,0.016130,0.003104,0.005473,0.002369
19940121,-0.009376,0.003174,0.006634,0.003460
19940218,0.006819,0.004545,0.008487,0.003942
19940318,-0.053815,0.004082,0.007690,0.003608
19940422,0.019578,0.004064,0.008626,0.004562
19940520,0.015292,0.006702,0.007534,0.000833
19940617,-0.011341,0.003303,0.007107,0.003804
19940722,0.022132,0.005632,0.006478,0.000845
19940819,0.023720,0.004302,0.007407,0.003105
19940923,0.015156,0.003998,0.008389,0.004391
19941021,-0.002779,0.004184,0.009186,0.005002
19941118,-0.013351,0.004502,0.009238,0.004736
19941223,0.015365,0.005811,0.006824,0.001013
19950120,0.042894,0.003734,0.007015,0.003281
19950217,0.027544,0.004222,0.007171,0.002949
19950324,0.009259,0.005349,0.006461,0.001112
19950421,0.021575,0.003932,0.006847,0.002915
19950519,0.034677,0.003816,0.007396,0.003580
19950623,0.006582,0.005680,0.006420,0.000740
19950721,0.009742,0.006167,0.007142,0.000975
19950818,0.042708,0.003836,0.006946,0.003110
19950922,0.015217,0.004111,0.007194,0.003082
19951020,0.016678,0.004005,0.007771,0.003766
19951117,0.027693,0.005543,0.007211,0.001668
19951222,-0.006081,0.006686,0.006645,-0.000041
19960119,0.062547,0.006035,0.007332,0.001297
19960216,-0.011033,0.006651,0.008874,0.002223
19960322,-0.010833,0.006904,0.009844,0.002939
19960419,0.030203,0.007086,0.008730,0.001644
19960524,-0.024483,0.006900,0.008972,0.002072
19960621,-0.035613,0.004942,0.009122,0.004180
19960719,0.036207,0.005736,0.009965,0.004229
19960823,0.023660,0.004663,0.008187,0.003524
19960920,0.028639,0.006866,0.009036,0.002170
19961018,0.034648,0.004622,0.008706,0.004085
19961122,-0.003975,0.005779,0.008614,0.002835
19961220,0.027500,0.007533,0.010883,0.003350
19970124,0.041040,0.008057,0.011160,0.003103
19970221,-0.024136,0.009060,0.011865,0.002805
19970321,-0.028892,0.008344,0.011368,0.003024
19970418,0.094012,0.009661,0.010825,0.001165
19970523,0.058423,0.011910,0.010438,-0.001472
19970620,0.035965,0.007647,0.011662,0.004016
19970718,0.010293,0.010768,0.012863,0.002095
19970822,0.025391,0.011026,0.014284,0.003257
19970919,0.004953,0.008737,0.013129,0.004392
19971024,0.018247,0.009240,0.013377,0.004137
19971121,-0.008121,0.010897,0.015386,0.004489
19971219,0.004163,0.008894,0.016847,0.007953
19980123,0.071223,0.011978,0.013464,0.001486
19980220,0.052301,0.007615,0.010970,0.003354
19980320,0.008164,0.007673,0.010791,0.003118
19980417,-0.004777,0.006924,0.011986,0.005062
19980522,-0.003699,0.008286,0.010964,0.002678
19980619,0.072989,0.009921,0.012477,0.002556
19980724,-0.044085,0.008323,0.013285,0.004961
19980821,-0.059414,0.011118,0.019133,0.008016
19980918,0.026506,0.013416,0.022303,0.008887
19981023,0.073744,0.010114,0.018631,0.008517
19981120,0.014022,0.008072,0.012973,0.004901
19981218,0.020132,0.013438,0.014457,0.001019
19990122,0.009819,0.012683,0.018446,0.005764
19990219,0.060533,0.012930,0.016916,0.003986
19990319,0.017978,0.011098,0.014041,0.002943
19990423,-0.013370,0.012664,0.013140,0.000476
19990521,0.007198,0.009533,0.014087,0.004554
19990618,0.048533,0.012167,0.012557,0.000391
19990723,-0.024884,0.009111,0.013464,0.004353
19990820,-0.013657,0.010406,0.013250,0.002844
19990917,-0.039717,0.009647,0.013452,0.003806
19991022,0.090497,0.013080,0.012494,-0.000586
19991119,-0.002267,0.008342,0.011033,0.002691
19991223,-0.008795,0.008170,0.012194,0.004024
20000121,-0.037536,0.009376,0.012020,0.002644
20000218,0.080184,0.008798,0.015011,0.006213
20000323,-0.062762,0.012262,0.012852,0.000590
20000420,0.001859,0.013242,0.014925,0.001683
20000519,0.049759,0.015080,0.014688,-0.000392
20000623,0.036837,0.012445,0.012898,0.000453
20000721,0.010671,0.008642,0.010935,0.002293
20000818,-0.007300,0.009220,0.009844,0.000624
20000922,-0.042269,0.006827,0.011974,0.005147
20001020,-0.017774,0.008885,0.013995,0.005110
20001117,-0.019782,0.011439,0.014324,0.002885
20001222,0.031669,0.014287,0.015906,0.001619
20010119,-0.011937,0.014265,0.013418,-0.000847
20010216,-0.103499,0.009014,0.012771,0.003757
20010323,0.095220,0.012360,0.017580,0.005220
20010420,0.035959,0.013830,0.014653,0.000823
20010518,-0.057416,0.010916,0.012257,0.001341
20010622,-0.008466,0.009464,0.011559,0.002094
20010720,-0.024402,0.010595,0.012898,0.002303
20010824,-0.185264,0.008888,0.011380,0.002491
20010921,0.101157,0.012062,0.024630,0.012568
20011019,0.062086,0.011431,0.019693,0.008262
20011123,-0.009091,0.011258,0.013423,0.002165
20011221,-0.005263,0.010308,0.012990,0.002682
20020118,-0.009893,0.007640,0.013002,0.005362
20020215,0.043299,0.008240,0.012915,0.004676
20020322,-0.021319,0.010097,0.010260,0.000162
20020419,-0.024234,0.009712,0.010566,0.000854
20020524,-0.074222,0.011809,0.010912,-0.000897
20020621,-0.115143,0.013025,0.015721,0.002696
20020719,0.092868,0.017867,0.022037,0.004171
20020823,-0.109448,0.021091,0.016928,-0.004163
20020920,0.039214,0.017186,0.022505,0.005319
20021018,0.022230,0.025313,0.019359,-0.005954
20021122,-0.051036,0.013177,0.013371,0.000194
20021220,0.020814,0.013340,0.015421,0.002081
20030124,-0.028615,0.014615,0.018192,0.003577
20030221,0.032102,0.013954,0.017465,0.003511
20030320,-0.002470,0.015840,0.017575,0.001735
20030417,0.057715,0.014568,0.012413,-0.002155
20030523,0.063800,0.009858,0.011068,0.001210
20030620,-0.014120,0.010270,0.011050,0.000781
20030718,-0.002833,0.009495,0.011033,0.001538
20030822,0.045781,0.006956,0.010710,0.003754
20030919,0.013200,0.007685,0.011016,0.003330
20031024,0.004596,0.006584,0.010225,0.003641
20031121,0.050753,0.006638,0.010958,0.004320
20031219,0.039083,0.007019,0.009480,0.002461
20040123,0.004815,0.005826,0.008568,0.002742
20040220,-0.019229,0.007230,0.009261,0.002030
20040319,0.017029,0.008325,0.011056,0.002731
20040423,-0.046120,0.007450,0.008089,0.000638
20040521,0.034592,0.007053,0.010675,0.003622
20040618,-0.025277,0.006755,0.008654,0.001899
20040723,0.004620,0.005963,0.009526,0.003564
20040820,0.022640,0.008402,0.009238,0.000836
20040917,-0.022637,0.005126,0.008100,0.002974
20041022,0.077088,0.006791,0.008822,0.002030
20041119,0.027699,0.007626,0.007794,0.000168
20041223,-0.029111,0.005840,0.006484,0.000644
20050121,0.027765,0.006186,0.008291,0.002105
20050218,-0.009516,0.005157,0.006455,0.001298
20050318,-0.023473,0.006753,0.007586,0.000834
20050422,0.033257,0.007924,0.008880,0.000955
20050520,0.018041,0.007720,0.007586,-0.000134
20050617,0.007809,0.004070,0.006628,0.002558
20050722,-0.011954,0.005976,0.006074,0.000098
20050819,0.007116,0.005409,0.007748,0.002339
20050923,-0.031334,0.006149,0.007482,0.001333
20051021,0.052200,0.007624,0.009313,0.001688
20051118,0.017998,0.007372,0.006420,-0.000952
20051223,0.012829,0.004578,0.005929,0.001351
20060120,0.021868,0.004347,0.008406,0.004060
20060217,0.013955,0.005406,0.006934,0.001528
20060324,0.006510,0.005220,0.006461,0.001240
20060421,-0.038457,0.004314,0.006691,0.002377
20060519,-0.008616,0.005492,0.009919,0.004427
20060623,0.003705,0.005817,0.009174,0.003358
20060721,0.045079,0.006201,0.010046,0.003845
20060818,0.010678,0.006576,0.006720,0.000144
20060922,0.038905,0.004519,0.007269,0.002750
20061020,0.022512,0.004704,0.006137,0.001434
20061117,0.017180,0.004656,0.005802,0.001147
20061222,0.010990,0.005236,0.006559,0.001322
20070119,0.018198,0.003676,0.006004,0.002329
20070216,-0.044434,0.005167,0.005785,0.000618
20070323,0.023794,0.005270,0.007477,0.002207
20070420,0.018946,0.005135,0.006969,0.001834
20070518,0.000144,0.005798,0.007367,0.001569
20070622,0.033141,0.007602,0.009093,0.001492
20070720,-0.083461,0.007720,0.009786,0.002067
20070824,0.026271,0.008314,0.011963,0.003649
20070921,0.009296,0.010764,0.010970,0.000206
20071019,-0.032193,0.008033,0.013256,0.005223
20071123,0.015490,0.009963,0.014786,0.004822
20071221,-0.106944,0.011983,0.010664,-0.001319
20080118,0.016710,0.014016,0.015692,0.001676
20080221,-0.017595,0.012453,0.014503,0.002050
20080320,0.029270,0.015978,0.015369,-0.000609
20080418,0.023851,0.012630,0.011622,-0.001008
20080523,-0.025699,0.008900,0.011287,0.002387
20080620,-0.046364,0.011850,0.013204,0.001354
20080718,0.025971,0.011791,0.013885,0.002095
20080822,-0.063159,0.013937,0.010860,-0.003077
20080919,-0.286642,0.019334,0.018516,-0.000819
20081024,-0.148415,0.018446,0.045686,0.027240
20081121,0.103151,0.022778,0.041956,0.019178
20081219,-0.050151,0.024410,0.025940,0.001530
20090123,-0.069787,0.022439,0.027291,0.004852
20090220,0.018693,0.021637,0.028463,0.006826
20090320,0.118445,0.028346,0.026495,-0.001852
20090417,0.026284,0.024652,0.019595,-0.005057
20090522,0.036485,0.016476,0.018839,0.002363
20090619,0.020766,0.012903,0.016160,0.003257
20090724,0.029977,0.013652,0.013331,-0.000321
20090821,0.038682,0.010660,0.014440,0.003780
20090918,0.024384,0.009278,0.013810,0.004532
20091023,0.013853,0.010972,0.012858,0.001885
20091120,0.005920,0.012868,0.012811,-0.000057
20091218,0.040224,0.007760,0.012517,0.004757
20100122,0.012498,0.009606,0.015767,0.006161
20100219,0.050550,0.009860,0.011559,0.001698
20100319,0.042427,0.006016,0.009798,0.003781
20100423,-0.131524,0.006275,0.009596,0.003320
20100521,0.025838,0.007877,0.023152,0.015274
20100618,-0.021399,0.007941,0.013828,0.005887
20100723,-0.024819,0.008498,0.013550,0.005052
20100820,0.049781,0.008079,0.014717,0.006637
20100917,0.045061,0.010634,0.012707,0.002073
20101022,0.010962,0.007524,0.010843,0.003319
20101119,0.035938,0.007819,0.010415,0.002596
20101223,0.021147,0.004759,0.009509,0.004750
20110121,0.043479,0.004661,0.010664,0.006002
20110218,-0.050627,0.003867,0.009486,0.005619
20110318,0.027244,0.005583,0.014110,0.008527
20110421,0.003449,0.005523,0.008481,0.002958
20110520,-0.049736,0.006237,0.010063,0.003826
20110617,0.028967,0.008129,0.012615,0.004486
20110722,-0.164968,0.009673,0.010115,0.000442
20110819,0.073492,0.010130,0.024855,0.014725
20110923,0.067173,0.014853,0.023816,0.008963
20111021,-0.017976,0.018266,0.018083,-0.000183
20111118,0.000362,0.018158,0.018475,0.000317
20111223,0.038116,0.015957,0.011968,-0.003989
20120120,0.031932,0.006949,0.010554,0.003605
20120217,0.029903,0.005783,0.010265,0.004482
20120323,-0.014528,0.005581,0.008556,0.002975
20120420,-0.054776,0.008783,0.010069,0.001286
